Probability
0 0 0 0 0 0 0 0 0 0 0 0 0 0 0 0 0 0 0 0 0 0 0 0 0 0 0 0 0 0 0 0 1 1 1 1 1 1 1 0 0 1 2 1 1 2 2 2 2
0 0 0 0 0 0 0 0 0 0 0 0 0 0 0 0 0 0 0 0 0 0 0 0 0 0 0 0 0 0 0 0 1 2 2 2 2 2 2 1 1 1 1 1 0 1 1 1 1
0 0 0 1 0 0 0 0 0 0 0 0 0 0 0 0 0 0 0 0 0 0 0 0 0 0 0 0 0 0 0 0 1 2 3 3 2 1 2 4 3 1 0 0 0 0 0 0 0
0 0 0 0 0 0 0 0 0 0 0 0 0 0 0 0 0 0 0 0 0 0 0 0 0 0 0 0 0 0 0 0 0 1 2 2 1 1 2 4 3 1 0 0 0 0 0 0 0
0 0 0 0 0 0 0 0 0 0 0 0 0 0 0 0 0 0 0 0 0 0 0 0 0 0 0 0 0 0 0 0 0 0 1 2 1 0 1 2 2 0 0 0 0 0 0 0 0
0 0 0 0 0 0 0 0 0 0 0 0 0 0 0 0 0 0 0 0 0 0 0 0 0 0 0 0 0 1 1 1 0 0 1 2 2 0 0 0 0 0 0 0 0 0 0 0 0
0 0 0 0 0 0 0 0 0 0 0 0 0 0 0 0 0 0 0 0 0 0 0 0 0 0 0 0 1 2 2 2 1 1 1 1 1 0 0 0 0 0 0 0 0 0 0 0 1
0 0 0 0 0 0 0 0 0 0 0 0 0 0 0 0 1 2 1 1 0 0 0 0 0 0 0 0 1 2 2 2 2 1 1 0 0 0 0 0 1 1 0 0 0 0 1 1 2
0 0 0 0 0 0 0 0 0 0 0 0 0 0 0 1 2 3 3 2 1 0 0 0 0 0 0 0 0 1 1 1 2 1 0 0 0 0 0 0 1 1 0 0 0 0 1 2 2
0 0 0 0 0 0 0 0 0 0 0 0 0 0 1 2 3 3 3 2 1 0 0 0 0 0 0 0 0 0 0 0 1 1 0 0 0 0 0 0 0 0 0 0 0 0 1 1 1
0 0 0 0 0 0 0 0 0 0 0 0 1 2 4 4 3 3 3 1 0 0 0 0 0 0 0 0 0 0 0 0 0 0 0 0 0 0 0 0 0 0 0 0 0 0 0 0 0
0 0 0 0 0 0 0 0 0 0 0 1 2 5 6 5 4 3 2 1 0 0 0 0 0 0 0 0 0 0 0 0 0 0 0 0 0 0 0 0 0 0 0 0 0 0 0 0 0
0 0 0 0 0 0 0 0 0 0 0 1 3 5 6 5 3 2 1 0 0 0 0 0 0 0 0 0 0 0 0 0 0 0 0 0 0 0 0 0 0 0 0 0 0 0 0 0 0
0 0 0 0 0 0 0 0 0 0 1 2 3 4 4 3 1 1 0 0 0 0 0 0 0 0 0 0 0 0 0 0 0 0 0 0 0 0 0 0 0 0 0 0 0 0 0 0 0
0 0 0 0 0 0 0 0 0 1 2 3 3 3 2 1 0 0 0 0 0 0 0 0 0 0 0 0 0 1 1 1 0 0 0 0 0 0 0 0 0 0 0 0 0 0 0 0 0
0 0 0 0 0 0 0 0 0 1 2 3 3 2 1 0 0 0 0 0 0 0 0 0 0 0 0 0 1 2 2 2 1 1 2 2 1 0 0 0 0 0 0 0 0 0 0 0 0
0 0 0 0 0 0 0 0 0 1 2 2 2 1 0 0 0 0 0 0 0 0 0 0 0 0 0 0 1 2 3 3 3 3 4 3 1 0 0 0 0 0 0 0 0 0 0 0 0
0 0 0 0 0 0 0 0 0 0 1 1 1 1 0 0 0 0 0 0 0 1 1 1 1 0 0 0 1 2 3 3 3 4 5 5 2 1 0 0 0 0 0 0 0 0 0 0 0
0 0 0 0 0 0 0 0 0 0 0 0 0 0 0 0 0 1 1 1 1 2 2 2 1 0 0 1 2 3 3 2 2 3 4 4 2 1 0 0 0 0 0 0 0 0 0 0 0
0 0 0 0 0 0 0 0 0 0 0 0 1 1 1 0 1 2 2 1 1 3 3 2 1 0 1 2 4 4 3 2 1 1 1 1 1 1 0 0 0 0 0 0 0 0 0 0 0
0 0 0 0 0 0 0 0 0 0 0 1 2 2 1 1 2 3 3 1 1 3 4 3 1 0 1 3 5 6 5 3 1 0 0 0 0 0 0 0 0 0 0 0 0 0 0 0 0
0 0 0 0 0 0 0 0 0 0 1 2 2 1 0 1 3 5 5 3 3 4 5 4 2 1 1 3 7 8 7 4 1 1 0 0 0 0 0 0 0 0 0 0 0 0 0 0 0
0 0 0 0 0 0 0 0 0 0 2 3 2 1 0 1 4 8 8 7 6 6 6 5 3 2 2 4 6 7 6 4 3 2 1 1 1 1 1 1 0 0 0 0 0 0 0 0 0
0 0 0 0 0 0 0 0 0 0 1 3 2 1 0 2 5 9 10 10 11 10 8 6 4 3 2 3 4 4 4 3 3 3 2 2 2 1 1 1 0 0 0 0 0 0 0 0 0
0 0 0 0 0 0 0 0 0 0 1 2 2 1 1 3 6 9 11 12 13 12 9 8 6 4 3 3 3 3 3 3 3 2 2 1 1 1 0 0 0 1 1 0 0 0 0 1 1
0 0 0 0 0 0 0 0 0 0 1 2 2 1 1 4 7 10 12 13 13 11 10 10 7 5 4 3 3 3 3 3 3 3 3 2 1 0 0 0 1 2 2 1 1 1 1 1 2
0 0 0 0 0 0 0 0 0 0 1 2 2 1 1 5 9 10 11 12 11 10 9 9 8 6 5 4 3 3 2 3 4 5 5 4 2 1 0 0 1 2 3 3 3 2 1 1 1
0 0 0 0 0 0 0 0 0 0 1 3 2 1 2 7 11 11 11 12 11 10 9 9 9 8 6 5 4 3 2 3 5 5 4 4 2 1 1 1 1 1 2 3 3 2 0 0 0
0 0 0 0 0 0 0 0 0 1 2 3 2 1 3 9 12 12 12 12 12 11 9 9 9 8 6 6 6 5 4 4 4 4 3 3 1 1 1 2 2 1 2 3 3 2 1 0 0
0 0 0 0 0 0 0 0 0 1 2 3 2 1 4 10 13 13 12 12 11 10 8 8 8 6 6 7 8 7 5 4 4 3 3 2 1 1 2 3 3 2 2 3 3 3 2 1 0
Wind_Speed
8 6 2 1 5 6 4 4 2 3 4 4 6 7 6 5 3 3 1 2 3 2 2 4 8 8 9 9 10 10 10 10 10 11 12 12 12 12 12 13 13 13 13 13 12 13 14 14 14
5 4 1 3 6 5 3 3 4 4 4 3 6 6 7 6 4 4 1 2 3 2 2 4 8 8 8 9 9 10 9 10 10 10 11 11 11 12 12 12 12 13 13 13 12 12 13 13 13
5 2 2 5 5 3 2 2 5 6 4 3 4 5 5 3 3 2 1 3 3 2 2 3 8 8 8 8 9 9 9 9 10 10 10 10 11 11 12 12 12 12 12 12 12 12 13 12 12
2 2 4 7 6 2 3 4 5 5 5 6 4 6 4 4 2 3 3 3 3 2 2 3 7 7 8 8 8 9 9 9 9 10 10 10 10 10 10 11 11 11 11 11 11 12 11 11 11
2 4 7 6 5 4 4 4 3 5 4 5 5 5 4 4 5 6 4 3 3 2 2 2 7 7 7 7 8 8 8 8 8 9 9 9 10 10 10 10 10 10 9 9 10 10 10 10 10
4 5 6 4 4 4 3 4 5 7 6 5 5 4 3 2 4 4 4 3 2 2 2 2 5 7 7 7 7 7 7 7 7 8 8 9 9 9 9 9 8 8 8 8 9 8 8 8 8
4 5 5 4 4 3 3 3 4 5 5 3 3 4 2 1 2 4 4 3 3 3 2 2 2 3 5 6 6 7 7 7 7 7 7 8 8 8 8 7 7 7 7 7 8 8 8 8 8
4 5 4 3 4 2 3 4 4 4 4 4 4 5 3 2 4 5 4 3 3 2 2 2 3 3 3 3 5 6 6 6 7 7 7 7 7 7 6 5 6 6 6 6 7 7 7 7 7
4 6 3 3 5 4 4 4 3 4 5 3 3 3 4 7 7 5 3 2 1 1 1 2 2 2 3 2 3 4 5 5 5 5 6 5 4 4 3 4 5 5 5 6 6 6 7 6 6
5 4 4 4 6 6 5 4 4 4 4 4 6 6 8 8 6 5 3 2 1 0 0 1 1 2 2 2 3 3 3 4 4 3 3 3 3 2 3 3 4 4 4 5 5 6 6 5 3
4 4 3 3 5 8 7 4 3 6 3 4 7 9 8 7 5 4 3 2 2 1 0 1 1 1 1 2 2 2 2 2 3 3 3 2 2 2 2 2 2 3 3 3 4 4 3 3 3
4 2 4 5 6 6 6 5 4 3 3 6 9 10 8 7 5 5 4 3 2 1 1 1 1 1 1 1 1 2 1 1 2 2 2 2 2 2 2 2 2 2 1 2 2 2 3 3 3
4 3 4 7 8 7 7 5 4 2 4 7 9 8 7 6 5 3 3 3 3 3 2 2 1 1 1 1 1 1 1 1 1 1 2 2 1 1 1 1 2 2 1 2 2 2 3 3 3
4 6 7 6 7 4 6 4 3 2 6 8 8 7 6 6 5 3 3 3 4 3 3 3 2 2 2 1 1 1 0 0 1 1 1 1 1 1 1 1 1 1 1 2 2 3 3 3 2
8 9 7 3 4 3 6 3 1 4 7 7 7 6 5 4 4 5 5 4 4 4 3 3 3 2 3 2 1 1 0 1 0 0 1 1 1 1 1 1 1 1 1 2 2 3 3 3 3
6 6 3 1 2 3 5 2 3 6 8 7 6 6 5 4 4 4 4 3 4 3 3 3 3 4 3 2 2 1 1 1 1 1 1 1 1 2 1 1 1 1 1 2 2 3 3 3 3
4 3 2 2 2 4 4 3 4 6 7 7 6 6 5 4 4 3 3 4 4 4 4 4 3 4 3 3 2 1 1 1 1 1 1 1 1 2 2 1 1 1 2 2 2 3 3 3 3
4 4 3 4 4 4 3 4 3 7 7 7 6 6 5 6 6 4 3 4 4 4 4 4 3 3 3 2 2 2 2 1 1 1 1 1 1 2 2 1 1 2 2 2 2 3 3 3 3
7 5 4 3 3 5 4 4 4 6 6 7 6 6 6 6 5 3 4 4 4 4 4 4 4 3 3 2 2 1 1 0 1 1 1 1 1 2 2 2 1 2 2 2 3 3 4 3 3
6 4 2 1 2 4 2 2 3 7 9 9 8 7 7 5 4 4 4 4 4 4 4 4 4 4 3 2 2 2 2 1 1 1 1 1 1 1 2 2 1 2 2 2 3 3 2 1 1
3 5 5 3 3 3 3 3 2 4 5 5 6 6 7 8 7 6 5 5 5 5 5 5 5 4 3 3 3 2 2 2 2 1 1 1 1 1 1 2 2 2 2 2 2 2 3 2 1
3 4 5 5 5 0 2 2 5 3 4 7 8 8 8 7 6 6 6 6 6 6 5 4 4 4 3 4 4 4 3 2 1 0 0 1 1 1 1 1 2 2 2 2 2 2 2 2 2
4 3 5 5 5 2 2 1 7 1 4 9 9 9 8 8 8 8 8 7 6 5 5 4 4 3 3 4 4 4 3 2 1 1 1 1 1 1 1 1 1 1 1 2 2 2 2 2 2
6 8 8 6 5 1 3 3 7 4 7 6 8 9 8 8 8 7 6 5 4 4 5 5 4 3 3 4 4 4 4 3 2 1 0 1 1 1 1 1 0 1 1 1 2 2 2 2 2
6 7 5 4 3 5 2 3 8 7 6 7 7 8 9 8 8 7 7 7 6 6 6 5 5 4 4 4 4 4 4 4 3 2 1 0 0 1 1 1 0 0 1 1 1 2 2 2 2
4 8 9 6 5 4 1 4 8 5 3 3 4 5 6 7 8 8 9 9 8 8 7 7 6 5 4 4 4 3 3 3 2 2 2 1 1 1 1 1 1 0 1 1 1 1 1 2 2
6 3 6 8 3 0 4 6 8 2 1 1 1 3 5 7 8 8 8 8 8 8 8 8 8 6 5 5 4 3 3 3 3 2 2 1 1 0 1 1 0 0 1 1 1 1 1 1 1
6 9 6 7 6 2 4 4 5 4 3 2 3 4 5 5 6 7 7 7 7 7 6 7 7 7 6 5 4 4 3 3 3 3 2 1 1 1 1 1 1 1 1 1 1 1 1 2 1
4 5 6 5 5 7 3 7 7 7 6 6 6 6 6 6 7 7 7 7 6 6 6 7 7 6 5 5 5 4 3 3 3 3 2 2 1 1 1 1 1 1 1 1 1 1 1 2 1
4 6 8 6 4 4 4 8 5 5 5 5 5 5 5 6 6 6 6 6 7 7 6 6 7 7 6 6 5 5 4 4 3 3 2 2 2 1 1 1 1 1 1 1 2 1 1 1 2
Wind_Direction
151 145 145 103 55 53 43 19 54 54 51 48 66 76 77 58 64 106 322 87 86 70 43 85 89 90 89 87 85 85 89 93 98 103 108 108 108 109 108 105 105 108 106 105 107 110 113 115 117
145 154 149 58 71 65 23 12 60 65 118 120 68 65 66 56 55 92 77 71 79 78 47 88 92 91 90 87 87 87 89 93 98 105 109 109 109 109 109 108 107 108 106 104 105 109 111 114 117
160 179 72 65 72 106 111 67 98 95 87 69 66 55 64 66 77 97 117 106 81 69 49 94 95 92 90 87 88 87 87 94 101 107 110 109 108 109 110 109 107 108 107 106 106 108 109 113 115
141 56 55 65 66 74 129 131 120 105 60 48 74 62 54 53 97 116 117 104 90 63 47 92 98 94 91 88 88 86 86 92 102 107 109 109 109 109 110 111 110 109 108 108 110 111 113 115 115
68 71 60 57 52 59 91 118 81 77 63 55 69 76 45 16 84 104 105 96 93 62 41 84 99 95 92 89 87 86 87 90 103 110 111 111 111 111 109 109 109 109 108 111 115 117 119 121 122
62 66 75 74 76 74 83 86 86 83 85 76 69 75 47 48 95 105 95 85 80 69 43 61 98 99 94 90 87 87 88 92 103 116 112 111 110 109 107 107 108 107 106 110 114 118 120 118 120
95 84 93 104 97 97 122 96 87 101 92 75 84 81 62 46 97 98 86 80 67 60 49 34 48 78 91 91 86 87 86 88 95 106 109 109 111 109 107 104 104 104 107 113 116 117 121 120 117
122 93 77 86 113 114 125 100 99 103 95 110 96 115 157 185 118 93 80 73 64 57 44 38 41 49 52 61 81 87 89 88 91 100 109 109 109 103 102 100 105 105 105 108 114 119 123 124 119
90 77 117 164 153 141 136 113 103 80 102 92 82 117 141 132 119 100 82 59 47 73 30 43 48 48 47 46 63 66 75 75 76 80 92 85 73 74 86 101 104 101 98 100 106 121 122 119 118
84 110 193 180 158 139 131 124 136 107 91 75 73 81 113 126 132 134 143 161 189 221 295 57 60 57 38 43 45 35 40 45 51 55 62 67 70 70 77 88 94 89 87 89 94 105 108 97 97
110 149 160 113 128 124 122 122 102 119 122 154 140 136 136 139 142 152 169 182 200 204 192 127 125 76 57 46 49 39 32 38 44 44 49 64 61 63 56 56 66 61 63 59 68 75 77 81 87
109 112 126 120 112 116 129 124 102 126 176 149 142 143 144 153 165 179 185 190 175 166 202 180 145 107 71 59 45 47 39 39 39 39 52 68 67 57 56 60 54 50 55 61 55 67 74 82 91
97 92 88 104 101 107 103 104 116 111 113 121 130 137 152 166 178 190 187 177 164 174 191 189 168 172 138 84 39 66 43 46 41 44 42 69 83 72 66 68 62 50 57 73 69 76 83 87 97
104 83 83 90 97 104 106 95 94 138 126 130 144 158 171 178 181 178 182 181 179 185 190 182 177 183 149 136 117 79 36 27 50 58 62 89 108 104 90 71 62 55 55 72 83 87 93 88 89
91 83 63 67 87 109 102 66 174 157 139 147 163 175 184 189 183 191 195 188 185 183 181 176 175 159 149 154 161 126 113 91 62 42 72 110 121 125 122 99 74 60 68 77 84 83 86 92 87
66 74 91 239 109 120 110 184 216 157 152 166 179 188 198 206 205 206 195 187 177 169 168 174 170 151 155 150 139 114 103 108 97 63 74 100 123 130 120 103 88 68 79 88 98 92 87 82 80
52 114 165 219 175 141 139 206 206 163 167 182 189 195 203 214 230 223 198 186 177 172 166 162 158 153 157 142 121 104 83 81 79 80 93 108 116 124 124 111 101 88 86 86 106 97 104 100 91
174 159 173 205 200 151 170 218 193 174 182 196 198 201 206 213 224 213 196 185 174 168 162 160 154 153 140 116 98 81 67 55 54 59 68 114 124 118 122 116 100 102 95 87 97 102 97 104 102
149 148 173 214 178 157 196 217 203 184 191 205 207 205 213 221 218 197 190 176 162 161 163 166 163 168 146 131 131 120 123 76 51 58 54 74 115 119 124 121 112 114 115 122 120 112 109 107 107
131 136 182 287 141 153 185 249 209 192 205 205 205 207 211 214 207 196 184 172 173 179 179 174 174 171 166 150 136 136 133 129 125 39 37 37 79 112 139 134 141 138 127 115 121 125 125 146 133
160 169 180 161 81 68 92 334 253 221 208 208 209 206 204 203 202 196 187 184 178 187 191 189 183 177 169 148 113 98 74 52 41 31 16 8 59 96 125 144 150 151 149 152 155 150 148 162 172
210 206 161 132 110 355 114 267 281 240 222 216 215 207 206 202 191 188 184 180 184 192 181 176 174 171 163 150 149 151 153 162 200 195 1 360 27 58 106 140 155 160 161 165 180 172 158 147 167
187 117 116 116 117 70 39 150 284 248 237 235 222 212 203 193 184 183 183 182 181 176 168 166 160 162 157 158 162 158 155 163 138 101 67 5 14 28 48 94 137 162 171 177 173 161 162 166 169
120 76 58 51 70 65 231 164 276 233 223 233 222 213 201 189 185 182 173 163 166 163 159 154 149 160 156 154 157 162 162 155 138 125 99 11 11 12 18 72 110 147 163 176 184 173 168 174 167
100 94 52 19 18 251 246 183 249 250 227 218 218 210 200 183 180 174 164 172 175 171 166 158 157 168 161 156 162 167 163 158 164 170 170 154 13 349 337 29 47 136 172 166 164 161 173 173 169
162 137 151 177 205 266 314 232 254 267 247 221 212 196 185 179 179 179 181 181 179 176 171 165 166 174 165 164 171 166 162 165 168 171 171 178 199 259 347 22 37 78 131 150 151 152 178 170 180
136 153 154 126 135 121 282 288 305 335 9 52 177 170 184 188 183 184 182 179 176 176 178 175 172 173 171 171 164 160 162 162 161 156 151 159 179 163 57 36 59 94 113 143 148 154 183 170 166
128 140 104 115 139 214 292 279 257 272 252 236 216 207 202 190 179 179 177 177 176 174 172 169 171 175 175 171 175 174 172 171 161 146 148 154 157 126 99 77 74 82 90 127 143 144 156 138 139
105 94 102 108 142 151 215 266 232 221 216 209 219 212 197 189 186 182 175 170 166 162 165 169 170 170 171 174 175 171 167 163 152 151 161 164 152 133 142 152 150 133 117 118 125 131 127 133 124
144 150 143 147 186 161 166 260 276 226 217 205 210 207 192 187 183 174 167 162 163 167 170 176 174 177 179 174 171 174 168 157 157 163 169 161 155 148 156 148 140 141 124 122 131 129 110 124 125